Year,Month,Day,Hour,Minute,Value (Times are PST for temperature in C)
2016,08,25,00,00,26.30
2016,08,25,00,01,26.30
2016,08,25,00,02,26.30
2016,08,25,00,03,26.30
2016,08,25,00,04,26.20
2016,08,25,00,05,26.20
2016,08,25,00,06,26.10
2016,08,25,00,07,26.00
2016,08,25,00,08,25.90
2016,08,25,00,09,25.90
2016,08,25,00,10,25.90
2016,08,25,00,11,25.80
2016,08,25,00,12,25.80
2016,08,25,00,13,25.70
2016,08,25,00,14,25.60
2016,08,25,00,15,25.60
2016,08,25,00,16,25.50
2016,08,25,00,17,25.50
2016,08,25,00,18,25.40
2016,08,25,00,19,25.30
2016,08,25,00,20,25.30
2016,08,25,00,21,25.20
2016,08,25,00,22,25.20
2016,08,25,00,23,25.20
2016,08,25,00,24,25.20
2016,08,25,00,25,25.20
2016,08,25,00,26,25.20
2016,08,25,00,27,25.20
2016,08,25,00,28,25.10
2016,08,25,00,29,25.10
2016,08,25,00,30,25.10
2016,08,25,00,31,25.10
2016,08,25,00,32,25.10
2016,08,25,00,33,25.00
2016,08,25,00,34,25.00
2016,08,25,00,35,25.00
2016,08,25,00,36,25.00
2016,08,25,00,37,25.00
2016,08,25,00,38,25.00
2016,08,25,00,39,25.00
2016,08,25,00,40,24.90
2016,08,25,00,41,24.90
2016,08,25,00,42,24.90
2016,08,25,00,43,24.90
2016,08,25,00,44,24.90
2016,08,25,00,45,24.80
2016,08,25,00,46,24.80
2016,08,25,00,47,24.70
2016,08,25,00,48,24.70
2016,08,25,00,49,24.60
2016,08,25,00,50,24.60
2016,08,25,00,51,24.50
2016,08,25,00,52,24.50
2016,08,25,00,53,24.50
2016,08,25,00,54,24.40
2016,08,25,00,55,24.40
2016,08,25,00,56,24.40
2016,08,25,00,57,24.40
2016,08,25,00,58,24.40
2016,08,25,00,59,24.40
2016,08,25,01,00,24.40
2016,08,25,01,01,24.30
2016,08,25,01,02,24.30
2016,08,25,01,03,24.20
2016,08,25,01,04,24.20
2016,08,25,01,05,24.20
2016,08,25,01,06,24.20
2016,08,25,01,07,24.20
2016,08,25,01,08,24.20
2016,08,25,01,09,24.20
2016,08,25,01,10,24.20
2016,08,25,01,11,24.20
2016,08,25,01,12,24.20
2016,08,25,01,13,24.20
2016,08,25,01,14,24.20
2016,08,25,01,15,24.30
2016,08,25,01,16,24.30
2016,08,25,01,17,24.30
2016,08,25,01,18,24.40
2016,08,25,01,19,24.40
2016,08,25,01,20,24.40
2016,08,25,01,21,24.50
2016,08,25,01,22,24.50
2016,08,25,01,23,24.60
2016,08,25,01,24,24.60
2016,08,25,01,25,24.60
2016,08,25,01,26,24.60
2016,08,25,01,27,24.60
2016,08,25,01,28,24.70
2016,08,25,01,29,24.70
2016,08,25,01,30,24.70
2016,08,25,01,31,24.80
2016,08,25,01,32,24.80
2016,08,25,01,33,24.80
2016,08,25,01,34,24.80
2016,08,25,01,35,24.80
2016,08,25,01,36,24.80
2016,08,25,01,37,24.80
2016,08,25,01,38,24.70
2016,08,25,01,39,24.70
2016,08,25,01,40,24.70
2016,08,25,01,41,24.60
2016,08,25,01,42,24.60
2016,08,25,01,43,24.50
2016,08,25,01,44,24.40
2016,08,25,01,45,24.30
2016,08,25,01,46,24.30
2016,08,25,01,47,24.20
2016,08,25,01,48,24.20
2016,08,25,01,49,24.10
2016,08,25,01,50,24.10
2016,08,25,01,51,24.00
2016,08,25,01,52,24.00
2016,08,25,01,53,24.00
2016,08,25,01,54,23.90
2016,08,25,01,55,23.90
2016,08,25,01,56,23.90
2016,08,25,01,57,23.80
2016,08,25,01,58,23.80
2016,08,25,01,59,23.80
2016,08,25,02,00,23.80
2016,08,25,02,01,23.80
2016,08,25,02,02,23.80
2016,08,25,02,03,23.80
2016,08,25,02,04,23.80
2016,08,25,02,05,23.90
2016,08,25,02,06,23.90
2016,08,25,02,07,23.90
2016,08,25,02,08,23.90
2016,08,25,02,09,23.90
2016,08,25,02,10,23.90
2016,08,25,02,11,23.90
2016,08,25,02,12,23.90
2016,08,25,02,13,23.80
2016,08,25,02,14,23.70
2016,08,25,02,15,23.60
2016,08,25,02,16,23.50
2016,08,25,02,17,23.40
2016,08,25,02,18,23.40
2016,08,25,02,19,23.30
2016,08,25,02,20,23.20
2016,08,25,02,21,23.20
2016,08,25,02,22,23.20
2016,08,25,02,23,23.20
2016,08,25,02,24,23.20
2016,08,25,02,25,23.20
2016,08,25,02,26,23.20
2016,08,25,02,27,23.20
2016,08,25,02,28,23.20
2016,08,25,02,29,23.30
2016,08,25,02,30,23.30
2016,08,25,02,31,23.30
2016,08,25,02,32,23.30
2016,08,25,02,33,23.20
2016,08,25,02,34,23.20
2016,08,25,02,35,23.20
2016,08,25,02,36,23.20
2016,08,25,02,37,23.20
2016,08,25,02,38,23.10
2016,08,25,02,39,23.10
2016,08,25,02,40,23.10
2016,08,25,02,41,23.10
2016,08,25,02,42,23.00
2016,08,25,02,43,23.00
2016,08,25,02,44,23.00
2016,08,25,02,45,23.00
2016,08,25,02,46,23.00
2016,08,25,02,47,23.10
2016,08,25,02,48,23.10
2016,08,25,02,49,23.10
2016,08,25,02,50,23.20
2016,08,25,02,51,23.20
2016,08,25,02,52,23.20
2016,08,25,02,53,23.20
2016,08,25,02,54,23.20
2016,08,25,02,55,23.20
2016,08,25,02,56,23.20
2016,08,25,02,57,23.20
2016,08,25,02,58,23.20
2016,08,25,02,59,23.20
2016,08,25,03,00,23.20
2016,08,25,03,01,23.20
2016,08,25,03,02,23.20
2016,08,25,03,03,23.20
2016,08,25,03,04,23.10
2016,08,25,03,05,23.10
2016,08,25,03,06,23.10
2016,08,25,03,07,23.10
2016,08,25,03,08,23.00
2016,08,25,03,09,23.00
2016,08,25,03,10,23.10
2016,08,25,03,11,23.00
2016,08,25,03,12,23.00
2016,08,25,03,13,23.10
2016,08,25,03,14,23.10
2016,08,25,03,15,23.10
2016,08,25,03,16,23.10
2016,08,25,03,17,23.10
2016,08,25,03,18,23.10
2016,08,25,03,19,23.10
2016,08,25,03,20,23.10
2016,08,25,03,21,23.10
2016,08,25,03,22,23.10
2016,08,25,03,23,23.10
2016,08,25,03,24,23.10
2016,08,25,03,25,23.00
2016,08,25,03,26,23.00
2016,08,25,03,27,22.90
2016,08,25,03,28,22.90
2016,08,25,03,29,22.90
2016,08,25,03,30,22.80
2016,08,25,03,31,22.80
2016,08,25,03,32,22.80
2016,08,25,03,33,22.70
2016,08,25,03,34,22.70
2016,08,25,03,35,22.70
2016,08,25,03,36,22.60
2016,08,25,03,37,22.60
2016,08,25,03,38,22.50
2016,08,25,03,39,22.50
2016,08,25,03,40,22.40
2016,08,25,03,41,22.40
2016,08,25,03,42,22.30
2016,08,25,03,43,22.30
2016,08,25,03,44,22.30
2016,08,25,03,45,22.30
2016,08,25,03,46,22.20
2016,08,25,03,47,22.20
2016,08,25,03,48,22.20
2016,08,25,03,49,22.20
2016,08,25,03,50,22.20
2016,08,25,03,51,22.20
2016,08,25,03,52,22.20
2016,08,25,03,53,22.10
2016,08,25,03,54,22.10
2016,08,25,03,55,22.00
2016,08,25,03,56,22.00
2016,08,25,03,57,21.90
2016,08,25,03,58,21.90
2016,08,25,03,59,21.80
2016,08,25,04,00,21.80
2016,08,25,04,01,21.80
2016,08,25,04,02,21.80
2016,08,25,04,03,21.80
2016,08,25,04,04,21.70
2016,08,25,04,05,21.70
2016,08,25,04,06,21.70
2016,08,25,04,07,21.70
2016,08,25,04,08,21.70
2016,08,25,04,09,21.70
2016,08,25,04,10,21.70
2016,08,25,04,11,21.70
2016,08,25,04,12,21.70
2016,08,25,04,13,21.80
2016,08,25,04,14,21.80
2016,08,25,04,15,21.80
2016,08,25,04,16,21.80
2016,08,25,04,17,21.80
2016,08,25,04,18,21.80
2016,08,25,04,19,21.80
2016,08,25,04,20,21.80
2016,08,25,04,21,21.80
2016,08,25,04,22,21.80
2016,08,25,04,23,21.90
2016,08,25,04,24,22.00
2016,08,25,04,25,22.00
2016,08,25,04,26,22.10
2016,08,25,04,27,22.10
2016,08,25,04,28,22.10
2016,08,25,04,29,22.10
2016,08,25,04,30,22.10
2016,08,25,04,31,22.00
2016,08,25,04,32,22.00
2016,08,25,04,33,21.90
2016,08,25,04,34,21.80
2016,08,25,04,35,21.80
2016,08,25,04,36,21.80
2016,08,25,04,37,21.70
2016,08,25,04,38,21.60
2016,08,25,04,39,21.60
2016,08,25,04,40,21.60
2016,08,25,04,41,21.50
2016,08,25,04,42,21.40
2016,08,25,04,43,21.40
2016,08,25,04,44,21.30
2016,08,25,04,45,21.30
2016,08,25,04,46,21.30
2016,08,25,04,47,21.30
2016,08,25,04,48,21.30
2016,08,25,04,49,21.40
2016,08,25,04,50,21.40
2016,08,25,04,51,21.50
2016,08,25,04,52,21.50
2016,08,25,04,53,21.50
2016,08,25,04,54,21.40
2016,08,25,04,55,21.40
2016,08,25,04,56,21.40
2016,08,25,04,57,21.40
2016,08,25,04,58,21.40
2016,08,25,04,59,21.30
2016,08,25,05,00,21.30
2016,08,25,05,01,21.30
2016,08,25,05,02,21.30
2016,08,25,05,03,21.20
2016,08,25,05,04,21.20
2016,08,25,05,05,21.20
2016,08,25,05,06,21.20
2016,08,25,05,07,21.20
2016,08,25,05,08,21.20
2016,08,25,05,09,21.20
2016,08,25,05,10,21.30
2016,08,25,05,11,21.30
2016,08,25,05,12,21.30
2016,08,25,05,13,21.30
2016,08,25,05,14,21.40
2016,08,25,05,15,21.40
2016,08,25,05,16,21.50
2016,08,25,05,17,21.50
2016,08,25,05,18,21.50
2016,08,25,05,19,21.50
2016,08,25,05,20,21.60
2016,08,25,05,21,21.60
2016,08,25,05,22,21.60
2016,08,25,05,23,21.70
2016,08,25,05,24,21.70
2016,08,25,05,25,21.70
2016,08,25,05,26,21.70
2016,08,25,05,27,21.70
2016,08,25,05,28,21.70
2016,08,25,05,29,21.70
2016,08,25,05,30,21.80
2016,08,25,05,31,21.80
2016,08,25,05,32,21.80
2016,08,25,05,33,21.80
2016,08,25,05,34,21.80
2016,08,25,05,35,21.80
2016,08,25,05,36,21.80
2016,08,25,05,37,21.80
2016,08,25,05,38,21.80
2016,08,25,05,39,21.80
2016,08,25,05,40,21.80
2016,08,25,05,41,21.80
2016,08,25,05,42,21.80
2016,08,25,05,43,21.80
2016,08,25,05,44,21.80
2016,08,25,05,45,21.80
2016,08,25,05,46,21.70
2016,08,25,05,47,21.70
2016,08,25,05,48,21.70
2016,08,25,05,49,21.60
2016,08,25,05,50,21.60
2016,08,25,05,51,21.60
2016,08,25,05,52,21.50
2016,08,25,05,53,21.50
2016,08,25,05,54,21.40
2016,08,25,05,55,21.40
2016,08,25,05,56,21.30
2016,08,25,05,57,21.30
2016,08,25,05,58,21.30
2016,08,25,05,59,21.30
2016,08,25,06,00,21.30
2016,08,25,06,01,21.30
2016,08,25,06,02,21.20
2016,08,25,06,03,21.20
2016,08,25,06,04,21.20
2016,08,25,06,05,21.10
2016,08,25,06,06,21.00
2016,08,25,06,07,21.00
2016,08,25,06,08,20.90
2016,08,25,06,09,20.90
2016,08,25,06,10,20.90
2016,08,25,06,11,20.90
2016,08,25,06,12,20.90
2016,08,25,06,13,20.90
2016,08,25,06,14,20.90
2016,08,25,06,15,20.90
2016,08,25,06,16,20.90
2016,08,25,06,17,20.90
2016,08,25,06,18,20.90
2016,08,25,06,19,20.90
2016,08,25,06,20,20.90
2016,08,25,06,21,20.90
2016,08,25,06,22,20.90
2016,08,25,06,23,20.80
2016,08,25,06,24,20.80
2016,08,25,06,25,20.80
2016,08,25,06,26,20.80
2016,08,25,06,27,20.80
2016,08,25,06,28,20.80
2016,08,25,06,29,20.80
2016,08,25,06,30,20.80
2016,08,25,06,31,20.80
2016,08,25,06,32,20.70
2016,08,25,06,33,20.70
2016,08,25,06,34,20.70
2016,08,25,06,35,20.70
2016,08,25,06,36,20.70
2016,08,25,06,37,20.70
2016,08,25,06,38,20.70
2016,08,25,06,39,20.70
2016,08,25,06,40,20.70
2016,08,25,06,41,20.70
2016,08,25,06,42,20.70
2016,08,25,06,43,20.70
2016,08,25,06,44,20.70
2016,08,25,06,45,20.70
2016,08,25,06,46,20.70
2016,08,25,06,47,20.80
2016,08,25,06,48,20.80
2016,08,25,06,49,20.90
2016,08,25,06,50,20.90
2016,08,25,06,51,21.00
2016,08,25,06,52,21.10
2016,08,25,06,53,21.10
2016,08,25,06,54,21.20
2016,08,25,06,55,21.20
2016,08,25,06,56,21.20
2016,08,25,06,57,21.30
2016,08,25,06,58,21.30
2016,08,25,06,59,21.30
2016,08,25,07,00,21.30
2016,08,25,07,01,21.40
2016,08,25,07,02,21.40
2016,08,25,07,03,21.40
2016,08,25,07,04,21.40
2016,08,25,07,05,21.40
2016,08,25,07,06,21.40
2016,08,25,07,07,21.30
2016,08,25,07,08,21.30
2016,08,25,07,09,21.30
2016,08,25,07,10,21.30
2016,08,25,07,11,21.30
2016,08,25,07,12,21.30
2016,08,25,07,13,21.30
2016,08,25,07,14,21.30
2016,08,25,07,15,21.30
2016,08,25,07,16,21.30
2016,08,25,07,17,21.30
2016,08,25,07,18,21.30
2016,08,25,07,19,21.30
2016,08,25,07,20,21.30
2016,08,25,07,21,21.30
2016,08,25,07,22,21.30
2016,08,25,07,23,21.40
2016,08,25,07,24,21.40
2016,08,25,07,25,21.40
2016,08,25,07,26,21.40
2016,08,25,07,27,21.50
2016,08,25,07,28,21.60
2016,08,25,07,29,21.60
2016,08,25,07,30,21.70
2016,08,25,07,31,21.70
2016,08,25,07,32,21.80
2016,08,25,07,33,21.80
2016,08,25,07,34,21.80
2016,08,25,07,35,21.80
2016,08,25,07,36,21.80
2016,08,25,07,37,21.80
2016,08,25,07,38,21.80
2016,08,25,07,39,21.70
2016,08,25,07,40,21.70
2016,08,25,07,41,21.60
2016,08,25,07,42,21.60
2016,08,25,07,43,21.50
2016,08,25,07,44,21.50
2016,08,25,07,45,21.50
2016,08,25,07,46,21.40
2016,08,25,07,47,21.40
2016,08,25,07,48,21.40
2016,08,25,07,49,21.40
2016,08,25,07,50,21.40
2016,08,25,07,51,21.50
2016,08,25,07,52,21.50
2016,08,25,07,53,21.60
2016,08,25,07,54,21.60
2016,08,25,07,55,21.60
2016,08,25,07,56,21.70
2016,08,25,07,57,21.70
2016,08,25,07,58,21.80
2016,08,25,07,59,21.80
2016,08,25,08,00,21.80
2016,08,25,08,01,21.90
2016,08,25,08,02,21.90
2016,08,25,08,03,21.90
2016,08,25,08,04,21.80
2016,08,25,08,05,21.80
2016,08,25,08,06,21.70
2016,08,25,08,07,21.60
2016,08,25,08,08,21.40
2016,08,25,08,09,21.30
2016,08,25,08,10,21.20
2016,08,25,08,11,21.00
2016,08,25,08,12,20.80
2016,08,25,08,13,20.70
2016,08,25,08,14,20.60
2016,08,25,08,15,20.50
2016,08,25,08,16,20.40
2016,08,25,08,17,20.30
2016,08,25,08,18,20.30
2016,08,25,08,19,20.20
2016,08,25,08,20,20.20
2016,08,25,08,21,20.20
2016,08,25,08,22,20.20
2016,08,25,08,23,20.20
2016,08,25,08,24,20.20
2016,08,25,08,25,20.20
2016,08,25,08,26,20.20
2016,08,25,08,27,20.30
2016,08,25,08,28,20.30
2016,08,25,08,29,20.30
2016,08,25,08,30,20.40
2016,08,25,08,31,20.50
2016,08,25,08,32,20.50
2016,08,25,08,33,20.60
2016,08,25,08,34,20.60
2016,08,25,08,35,20.70
2016,08,25,08,36,20.70
2016,08,25,08,37,20.70
2016,08,25,08,38,20.70
2016,08,25,08,39,20.70
2016,08,25,08,40,20.70
2016,08,25,08,41,20.70
2016,08,25,08,42,20.70
2016,08,25,08,43,20.70
2016,08,25,08,44,20.70
2016,08,25,08,45,20.70
2016,08,25,08,46,20.70
2016,08,25,08,47,20.60
2016,08,25,08,48,20.60
2016,08,25,08,49,20.60
2016,08,25,08,50,20.70
2016,08,25,08,51,20.70
2016,08,25,08,52,20.80
2016,08,25,08,53,20.80
2016,08,25,08,54,20.80
2016,08,25,08,55,20.90
2016,08,25,08,56,21.00
2016,08,25,08,57,21.00
2016,08,25,08,58,20.90
2016,08,25,08,59,20.90
2016,08,25,09,00,20.90
2016,08,25,09,01,20.90
2016,08,25,09,02,20.90
2016,08,25,09,03,20.90
2016,08,25,09,04,20.80
2016,08,25,09,05,20.80
2016,08,25,09,06,20.80
2016,08,25,09,07,20.80
2016,08,25,09,08,20.80
2016,08,25,09,09,20.80
2016,08,25,09,10,20.80
2016,08,25,09,11,20.80
2016,08,25,09,12,20.80
2016,08,25,09,13,20.80
2016,08,25,09,14,20.90
2016,08,25,09,15,21.00
2016,08,25,09,16,21.10
2016,08,25,09,17,21.20
2016,08,25,09,18,21.20
2016,08,25,09,19,21.30
2016,08,25,09,20,21.30
2016,08,25,09,21,21.40
2016,08,25,09,22,21.50
2016,08,25,09,23,21.50
2016,08,25,09,24,21.60
2016,08,25,09,25,21.60
2016,08,25,09,26,21.60
2016,08,25,09,27,21.60
2016,08,25,09,28,21.70
2016,08,25,09,29,21.70
2016,08,25,09,30,21.80
2016,08,25,09,31,21.80
2016,08,25,09,32,21.80
2016,08,25,09,33,21.80
2016,08,25,09,34,21.80
2016,08,25,09,35,21.80
2016,08,25,09,36,21.70
2016,08,25,09,37,21.60
2016,08,25,09,38,21.50
2016,08,25,09,39,21.40
2016,08,25,09,40,21.20
2016,08,25,09,41,21.20
2016,08,25,09,42,21.00
2016,08,25,09,43,21.00
2016,08,25,09,44,20.90
2016,08,25,09,45,20.80
2016,08,25,09,46,20.80
2016,08,25,09,47,20.70
2016,08,25,09,48,20.70
2016,08,25,09,49,20.70
2016,08,25,09,50,20.70
2016,08,25,09,51,20.70
2016,08,25,09,52,20.60
2016,08,25,09,53,20.60
2016,08,25,09,54,20.60
2016,08,25,09,55,20.60
2016,08,25,09,56,20.60
2016,08,25,09,57,20.60
2016,08,25,09,58,20.70
2016,08,25,09,59,20.70
2016,08,25,10,00,20.70
2016,08,25,10,01,20.80
2016,08,25,10,02,20.80
2016,08,25,10,03,20.80
2016,08,25,10,04,20.90
2016,08,25,10,05,20.90
2016,08,25,10,06,20.90
2016,08,25,10,07,20.80
2016,08,25,10,08,20.80
2016,08,25,10,09,20.70
2016,08,25,10,10,20.70
2016,08,25,10,11,20.70
2016,08,25,10,12,20.70
2016,08,25,10,13,20.70
2016,08,25,10,14,20.70
2016,08,25,10,15,20.70
2016,08,25,10,16,20.70
2016,08,25,10,17,20.70
2016,08,25,10,18,20.80
2016,08,25,10,19,20.80
2016,08,25,10,20,20.90
2016,08,25,10,21,20.90
2016,08,25,10,22,21.00
2016,08,25,10,23,21.10
2016,08,25,10,24,21.20
2016,08,25,10,25,21.30
2016,08,25,10,26,21.30
2016,08,25,10,27,21.30
2016,08,25,10,28,21.40
2016,08,25,10,29,21.40
2016,08,25,10,30,21.50
2016,08,25,10,31,21.50
2016,08,25,10,32,21.50
2016,08,25,10,33,21.50
2016,08,25,10,34,21.50
2016,08,25,10,35,21.50
2016,08,25,10,36,21.40
2016,08,25,10,37,21.30
2016,08,25,10,38,21.20
2016,08,25,10,39,21.20
2016,08,25,10,40,21.10
2016,08,25,10,41,21.10
2016,08,25,10,42,21.20
2016,08,25,10,43,21.20
2016,08,25,10,44,21.20
2016,08,25,10,45,21.20
2016,08,25,10,46,21.30
2016,08,25,10,47,21.30
2016,08,25,10,48,21.30
2016,08,25,10,49,21.30
2016,08,25,10,50,21.30
2016,08,25,10,51,21.40
2016,08,25,10,52,21.40
2016,08,25,10,53,21.50
2016,08,25,10,54,21.50
2016,08,25,10,55,21.60
2016,08,25,10,56,21.70
2016,08,25,10,57,21.80
2016,08,25,10,58,21.90
2016,08,25,10,59,22.00
2016,08,25,11,00,22.00
2016,08,25,11,01,22.00
2016,08,25,11,02,22.00
2016,08,25,11,03,22.00
2016,08,25,11,04,22.00
2016,08,25,11,05,22.10
2016,08,25,11,06,22.10
2016,08,25,11,07,22.10
2016,08,25,11,08,22.10
2016,08,25,11,09,22.10
2016,08,25,11,10,22.10
2016,08,25,11,11,22.10
2016,08,25,11,12,22.10
2016,08,25,11,13,22.10
2016,08,25,11,14,22.20
2016,08,25,11,15,22.20
2016,08,25,11,16,22.30
2016,08,25,11,17,22.30
2016,08,25,11,18,22.40
2016,08,25,11,19,22.40
2016,08,25,11,20,22.50
2016,08,25,11,21,22.60
2016,08,25,11,22,22.70
2016,08,25,11,23,22.80
2016,08,25,11,24,22.80
2016,08,25,11,25,22.90
2016,08,25,11,26,22.90
2016,08,25,11,27,23.00
2016,08,25,11,28,23.00
2016,08,25,11,29,23.00
2016,08,25,11,30,23.00
2016,08,25,11,31,23.00
2016,08,25,11,32,23.00
2016,08,25,11,33,22.90
2016,08,25,11,34,22.80
2016,08,25,11,35,22.80
2016,08,25,11,36,22.70
2016,08,25,11,37,22.60
2016,08,25,11,38,22.50
2016,08,25,11,39,22.40
2016,08,25,11,40,22.40
2016,08,25,11,41,22.30
2016,08,25,11,42,22.10
2016,08,25,11,43,22.00
2016,08,25,11,44,21.90
2016,08,25,11,45,21.90
2016,08,25,11,46,21.90
2016,08,25,11,47,21.90
2016,08,25,11,48,21.90
2016,08,25,11,49,21.90
2016,08,25,11,50,21.90
2016,08,25,11,51,21.80
2016,08,25,11,52,21.80
2016,08,25,11,53,21.80
2016,08,25,11,54,21.80
2016,08,25,11,55,21.80
2016,08,25,11,56,21.80
2016,08,25,11,57,21.80
2016,08,25,11,58,21.80
2016,08,25,11,59,21.90
2016,08,25,12,00,21.90
2016,08,25,12,01,21.90
2016,08,25,12,02,21.90
2016,08,25,12,03,22.00
2016,08,25,12,04,22.00
2016,08,25,12,05,22.00
2016,08,25,12,06,22.10
2016,08,25,12,07,22.10
2016,08,25,12,08,22.20
2016,08,25,12,09,22.30
2016,08,25,12,10,22.30
2016,08,25,12,11,22.30
2016,08,25,12,12,22.30
2016,08,25,12,13,22.30
2016,08,25,12,14,22.30
2016,08,25,12,15,22.20
2016,08,25,12,16,22.20
2016,08,25,12,17,22.20
2016,08,25,12,18,22.20
2016,08,25,12,19,22.20
2016,08,25,12,20,22.20
2016,08,25,12,21,22.20
2016,08,25,12,22,22.30
2016,08,25,12,23,22.30
2016,08,25,12,24,22.30
2016,08,25,12,25,22.30
2016,08,25,12,26,22.30
2016,08,25,12,27,22.30
2016,08,25,12,28,22.30
2016,08,25,12,29,22.20
2016,08,25,12,30,22.30
2016,08,25,12,31,22.30
2016,08,25,12,32,22.30
2016,08,25,12,33,22.30
2016,08,25,12,34,22.40
2016,08,25,12,35,22.50
2016,08,25,12,36,22.50
2016,08,25,12,37,22.60
2016,08,25,12,38,22.60
2016,08,25,12,39,22.60
2016,08,25,12,40,22.60
2016,08,25,12,41,22.50
2016,08,25,12,42,22.50
2016,08,25,12,43,22.40
2016,08,25,12,44,22.30
2016,08,25,12,45,22.40
2016,08,25,12,46,22.40
2016,08,25,12,47,22.30
2016,08,25,12,48,22.30
2016,08,25,12,49,22.40
2016,08,25,12,50,22.50
2016,08,25,12,51,22.60
2016,08,25,12,52,22.60
2016,08,25,12,53,22.70
2016,08,25,12,54,22.80
2016,08,25,12,55,22.90
2016,08,25,12,56,23.00
2016,08,25,12,57,23.10
2016,08,25,12,58,23.20
2016,08,25,12,59,23.20
2016,08,25,13,00,23.30
2016,08,25,13,01,23.30
2016,08,25,13,02,23.30
2016,08,25,13,03,23.40
2016,08,25,13,04,23.50
2016,08,25,13,05,23.60
2016,08,25,13,06,23.70
2016,08,25,13,07,23.80
2016,08,25,13,08,23.90
2016,08,25,13,09,24.00
2016,08,25,13,10,24.00
2016,08,25,13,11,24.10
2016,08,25,13,12,24.10
2016,08,25,13,13,24.10
2016,08,25,13,14,24.10
2016,08,25,13,15,24.10
2016,08,25,13,16,24.20
2016,08,25,13,17,24.30
2016,08,25,13,18,24.30
2016,08,25,13,19,24.40
2016,08,25,13,20,24.40
2016,08,25,13,21,24.40
2016,08,25,13,22,24.50
2016,08,25,13,23,24.50
2016,08,25,13,24,24.50
2016,08,25,13,25,24.60
2016,08,25,13,26,24.60
2016,08,25,13,27,24.60
2016,08,25,13,28,24.70
2016,08,25,13,29,24.70
2016,08,25,13,30,24.70
2016,08,25,13,31,24.70
2016,08,25,13,32,24.70
2016,08,25,13,33,24.70
2016,08,25,13,34,24.70
2016,08,25,13,35,24.80
2016,08,25,13,36,24.80
2016,08,25,13,37,24.90
2016,08,25,13,38,25.00
2016,08,25,13,39,25.00
2016,08,25,13,40,25.10
2016,08,25,13,41,25.20
2016,08,25,13,42,25.20
2016,08,25,13,43,25.30
2016,08,25,13,44,25.40
2016,08,25,13,45,25.50
2016,08,25,13,46,25.50
2016,08,25,13,47,25.60
2016,08,25,13,48,25.60
2016,08,25,13,49,25.60
2016,08,25,13,50,25.70
2016,08,25,13,51,25.70
2016,08,25,13,52,25.60
2016,08,25,13,53,25.60
2016,08,25,13,54,25.60
2016,08,25,13,55,25.60
2016,08,25,13,56,25.60
2016,08,25,13,57,25.70
2016,08,25,13,58,25.70
2016,08,25,13,59,25.60
2016,08,25,14,00,25.60
2016,08,25,14,01,25.50
2016,08,25,14,02,25.50
2016,08,25,14,03,25.60
2016,08,25,14,04,25.70
2016,08,25,14,05,25.70
2016,08,25,14,06,25.80
2016,08,25,14,07,25.90
2016,08,25,14,08,25.90
2016,08,25,14,09,25.90
2016,08,25,14,10,25.90
2016,08,25,14,11,26.00
2016,08,25,14,12,26.00
2016,08,25,14,13,26.00
2016,08,25,14,14,26.10
2016,08,25,14,15,26.10
2016,08,25,14,16,26.10
2016,08,25,14,17,26.20
2016,08,25,14,18,26.20
2016,08,25,14,19,26.30
2016,08,25,14,20,26.30
2016,08,25,14,21,26.30
2016,08,25,14,22,26.40
2016,08,25,14,23,26.50
2016,08,25,14,24,26.50
2016,08,25,14,25,26.50
2016,08,25,14,26,26.50
2016,08,25,14,27,26.50
2016,08,25,14,28,26.50
2016,08,25,14,29,26.40
2016,08,25,14,30,26.30
2016,08,25,14,31,26.30
2016,08,25,14,32,26.30
2016,08,25,14,33,26.40
2016,08,25,14,34,26.40
2016,08,25,14,35,26.50
2016,08,25,14,36,26.50
2016,08,25,14,37,26.50
2016,08,25,14,38,26.50
2016,08,25,14,39,26.50
2016,08,25,14,40,26.50
2016,08,25,14,41,26.60
2016,08,25,14,42,26.50
2016,08,25,14,43,26.50
2016,08,25,14,44,26.50
2016,08,25,14,45,26.60
2016,08,25,14,46,26.60
2016,08,25,14,47,26.60
2016,08,25,14,48,26.60
2016,08,25,14,49,26.60
2016,08,25,14,50,26.60
2016,08,25,14,51,26.60
2016,08,25,14,52,26.60
2016,08,25,14,53,26.60
2016,08,25,14,54,26.60
2016,08,25,14,55,26.60
2016,08,25,14,56,26.70
2016,08,25,14,57,26.80
2016,08,25,14,58,26.80
2016,08,25,14,59,26.90
2016,08,25,15,00,26.90
2016,08,25,15,01,26.90
2016,08,25,15,02,26.90
2016,08,25,15,03,26.90
2016,08,25,15,04,26.90
2016,08,25,15,05,26.90
2016,08,25,15,06,26.90
2016,08,25,15,07,27.00
2016,08,25,15,08,27.10
2016,08,25,15,09,27.10
2016,08,25,15,10,27.20
2016,08,25,15,11,27.20
2016,08,25,15,12,27.20
2016,08,25,15,13,27.30
2016,08,25,15,14,27.30
2016,08,25,15,15,27.30
2016,08,25,15,16,27.30
2016,08,25,15,17,27.40
2016,08,25,15,18,27.40
2016,08,25,15,19,27.50
2016,08,25,15,20,27.60
2016,08,25,15,21,27.70
2016,08,25,15,22,27.70
2016,08,25,15,23,27.70
2016,08,25,15,24,27.70
2016,08,25,15,25,27.70
2016,08,25,15,26,27.70
2016,08,25,15,27,27.70
2016,08,25,15,28,27.60
2016,08,25,15,29,27.60
2016,08,25,15,30,27.50
2016,08,25,15,31,27.50
2016,08,25,15,32,27.40
2016,08,25,15,33,27.40
2016,08,25,15,34,27.40
2016,08,25,15,35,27.50
2016,08,25,15,36,27.50
2016,08,25,15,37,27.60
2016,08,25,15,38,27.70
2016,08,25,15,39,27.80
2016,08,25,15,40,27.90
2016,08,25,15,41,28.00
2016,08,25,15,42,28.10
2016,08,25,15,43,28.10
2016,08,25,15,44,28.20
2016,08,25,15,45,28.20
2016,08,25,15,46,28.20
2016,08,25,15,47,28.10
2016,08,25,15,48,28.10
2016,08,25,15,49,28.10
2016,08,25,15,50,28.10
2016,08,25,15,51,28.00
2016,08,25,15,52,28.00
2016,08,25,15,53,28.00
2016,08,25,15,54,28.00
2016,08,25,15,55,28.10
2016,08,25,15,56,28.20
2016,08,25,15,57,28.20
2016,08,25,15,58,28.30
2016,08,25,15,59,28.40
2016,08,25,16,00,28.50
2016,08,25,16,01,28.50
2016,08,25,16,02,28.50
2016,08,25,16,03,28.50
2016,08,25,16,04,28.50
2016,08,25,16,05,28.40
2016,08,25,16,06,28.40
2016,08,25,16,07,28.50
2016,08,25,16,08,28.50
2016,08,25,16,09,28.50
2016,08,25,16,10,28.60
2016,08,25,16,11,28.70
2016,08,25,16,12,28.70
2016,08,25,16,13,28.80
2016,08,25,16,14,28.80
2016,08,25,16,15,28.80
2016,08,25,16,16,28.90
2016,08,25,16,17,28.90
2016,08,25,16,18,28.90
2016,08,25,16,19,29.00
2016,08,25,16,20,29.10
2016,08,25,16,21,29.10
2016,08,25,16,22,29.10
2016,08,25,16,23,29.20
2016,08,25,16,24,29.40
2016,08,25,16,25,29.50
2016,08,25,16,26,29.60
2016,08,25,16,27,29.70
2016,08,25,16,28,29.80
2016,08,25,16,29,29.80
2016,08,25,16,30,29.80
2016,08,25,16,31,29.80
2016,08,25,16,32,29.90
2016,08,25,16,33,29.90
2016,08,25,16,34,29.90
2016,08,25,16,35,30.00
2016,08,25,16,36,30.00
2016,08,25,16,37,30.00
2016,08,25,16,38,30.00
2016,08,25,16,39,30.00
2016,08,25,16,40,30.00
2016,08,25,16,41,30.10
2016,08,25,16,42,30.10
2016,08,25,16,43,30.10
2016,08,25,16,44,30.10
2016,08,25,16,45,30.10
2016,08,25,16,46,30.10
2016,08,25,16,47,30.10
2016,08,25,16,48,30.00
2016,08,25,16,49,30.00
2016,08,25,16,50,29.90
2016,08,25,16,51,29.90
2016,08,25,16,52,29.90
2016,08,25,16,53,29.90
2016,08,25,16,54,29.90
2016,08,25,16,55,30.00
2016,08,25,16,56,30.00
2016,08,25,16,57,30.10
2016,08,25,16,58,30.10
2016,08,25,16,59,30.20
2016,08,25,17,00,30.20
2016,08,25,17,01,30.30
2016,08,25,17,02,30.40
2016,08,25,17,03,30.40
2016,08,25,17,04,30.40
2016,08,25,17,05,30.40
2016,08,25,17,06,30.40
2016,08,25,17,07,30.40
2016,08,25,17,08,30.40
2016,08,25,17,09,30.40
2016,08,25,17,10,30.40
2016,08,25,17,11,30.40
2016,08,25,17,12,30.40
2016,08,25,17,13,30.40
2016,08,25,17,14,30.40
2016,08,25,17,15,30.40
2016,08,25,17,16,30.30
2016,08,25,17,17,30.30
2016,08,25,17,18,30.20
2016,08,25,17,19,30.20